When you browse on this site, cookies collect data to enhance your experience and personalize the content and advertising you see.
Visit our Privacy Policy to learn more. By continuing to use the site, you agree to this use of cookies and data.
  • In Österreich
  • Länderverzeichnis
  • Für 7 Tage
  • Wassertemperatur
  • Satellitenkarten
  • Wetterkarte
  • News
  • Widgets
  • user-avatar
    Anmelden

    Stündliche Wetter Proshkovo

    Heute, 21 November, Mittwoch

    Zeit Temperatur Niederschläge Wind Luftdruck Luftfeuchtigkeit
    00:00 -6°C° 0 mm 2 m/S 759 mmHg 91%
    01:00 -6°C° 0 mm 2 m/S 759 mmHg 92%
    02:00 -3°C° 0 mm 1 m/S 759 mmHg 94%
    03:00 -2°C° 0 mm 1 m/S 759 mmHg 94%
    04:00 -2°C° 0 mm 1 m/S 759 mmHg 94%
    05:00 -2°C° 0 mm 1 m/S 759 mmHg 93%
    06:00 -4°C° 0 mm 2 m/S 759 mmHg 94%
    07:00 -4°C° 0 mm 2 m/S 759 mmHg 94%
    08:00 -4°C° 0 mm 2 m/S 759 mmHg 94%
    09:00 -3°C° 0 mm 2 m/S 759 mmHg 92%
    10:00 -3°C° 0 mm 2 m/S 759 mmHg 90%
    11:00 -2°C° 0 mm 2 m/S 760 mmHg 88%
    12:00 -2°C° 0 mm 2 m/S 759 mmHg 87%
    13:00 -2°C° 0 mm 2 m/S 759 mmHg 87%
    14:00 -2°C° 0 mm 2 m/S 760 mmHg 84%
    15:00 -2°C° 0 mm 2 m/S 759 mmHg 86%
    16:00 -3°C° 0 mm 2 m/S 759 mmHg 88%
    17:00 -3°C° 0 mm 2 m/S 759 mmHg 90%
    18:00 -3°C° 0 mm 2 m/S 759 mmHg 91%
    19:00 -4°C° 0 mm 2 m/S 759 mmHg 92%
    20:00 -4°C° 0 mm 2 m/S 758 mmHg 93%
    21:00 -4°C° 0 mm 2 m/S 758 mmHg 94%
    22:00 -5°C° 0 mm 2 m/S 758 mmHg 94%
    23:00 -5°C° 0 mm 2 m/S 758 mmHg 95%

    Morgen, 22 November, Donnerstag

    Zeit Temperatur Niederschläge Wind Luftdruck Luftfeuchtigkeit
    00:00 -5°C° 0 mm 2 m/S 757 mmHg 95%
    01:00 -5°C° 0 mm 2 m/S 757 mmHg 95%
    02:00 -5°C° 0 mm 2 m/S 757 mmHg 94%
    03:00 -6°C° 0 mm 3 m/S 756 mmHg 94%
    04:00 -6°C° 0 mm 3 m/S 756 mmHg 94%
    05:00 -5°C° 0 mm 3 m/S 755 mmHg 94%
    06:00 -5°C° 0 mm 4 m/S 755 mmHg 92%
    07:00 -5°C° 0 mm 4 m/S 754 mmHg 91%
    08:00 -5°C° 0 mm 4 m/S 754 mmHg 90%
    09:00 -4°C° 0 mm 4 m/S 754 mmHg 88%
    10:00 -4°C° 0 mm 4 m/S 754 mmHg 86%
    11:00 -3°C° 0 mm 4 m/S 753 mmHg 84%
    12:00 -3°C° 0 mm 4 m/S 753 mmHg 84%
    13:00 -2°C° 0 mm 4 m/S 753 mmHg 84%
    14:00 -2°C° 0 mm 4 m/S 753 mmHg 84%
    15:00 -2°C° 0 mm 4 m/S 753 mmHg 85%
    16:00 -2°C° 0 mm 4 m/S 753 mmHg 86%
    17:00 -2°C° 0 mm 4 m/S 753 mmHg 87%
    18:00 -1°C° 0.1 mm 4 m/S 753 mmHg 88%
    19:00 -1°C° 0.1 mm 4 m/S 753 mmHg 89%
    20:00 -1°C° 0.1 mm 4 m/S 753 mmHg 90%
    21:00 0°C° 0 mm 3 m/S 754 mmHg 91%
    22:00 0°C° 0 mm 3 m/S 754 mmHg 92%
    23:00 -1°C° 0 mm 3 m/S 754 mmHg 93%

    übermorgen, 23 November, Freitag

    Zeit Temperatur Niederschläge Wind Luftdruck Luftfeuchtigkeit
    00:00 -1°C° 0 mm 2 m/S 755 mmHg 93%
    01:00 -1°C° 0 mm 2 m/S 755 mmHg 94%
    02:00 -2°C° 0 mm 2 m/S 755 mmHg 95%
    03:00 -2°C° 0 mm 2 m/S 756 mmHg 95%
    04:00 0°C° 0 mm 1 m/S 756 mmHg 96%
    05:00 -1°C° 0 mm 1 m/S 756 mmHg 96%
    06:00 -1°C° 0 mm 1 m/S 757 mmHg 96%
    07:00 -1°C° 0 mm 1 m/S 757 mmHg 96%
    08:00 -1°C° 0 mm 1 m/S 757 mmHg 96%
    09:00 0°C° 0 mm 1 m/S 757 mmHg 94%
    10:00 0°C° 0 mm 1 m/S 757 mmHg 93%
    11:00 -1°C° 0 mm 2 m/S 758 mmHg 91%
    12:00 -1°C° 0 mm 2 m/S 757 mmHg 89%
    13:00 -1°C° 0 mm 2 m/S 757 mmHg 88%
    14:00 +1°C° 0 mm 2 m/S 757 mmHg 86%
    15:00 -1°C° 0 mm 2 m/S 756 mmHg 87%
    16:00 -1°C° 0 mm 3 m/S 756 mmHg 88%
    17:00 -1°C° 0 mm 3 m/S 756 mmHg 89%
    18:00 -1°C° 0 mm 3 m/S 756 mmHg 88%
    19:00 -1°C° 0 mm 3 m/S 755 mmHg 88%
    20:00 -1°C° 0 mm 3 m/S 755 mmHg 88%
    21:00 -2°C° 0 mm 4 m/S 754 mmHg 87%
    22:00 -2°C° 0 mm 4 m/S 754 mmHg 85%
    23:00 -3°C° 0 mm 4 m/S 753 mmHg 84%

    24 November, Samstag

    Zeit Temperatur Niederschläge Wind Luftdruck Luftfeuchtigkeit
    00:00 -3°C° 0 mm 4 m/S 753 mmHg 84%
    01:00 -3°C° 0 mm 4 m/S 753 mmHg 84%
    02:00 -3°C° 0 mm 4 m/S 752 mmHg 84%
    03:00 -4°C° 0 mm 4 m/S 752 mmHg 85%
    04:00 -4°C° 0 mm 4 m/S 751 mmHg 86%
    05:00 -4°C° 0 mm 4 m/S 750 mmHg 86%
    06:00 -4°C° 0 mm 4 m/S 750 mmHg 86%
    07:00 -5°C° 0 mm 4 m/S 749 mmHg 87%
    08:00 -5°C° 0 mm 4 m/S 749 mmHg 87%
    09:00 -5°C° 0 mm 4 m/S 749 mmHg 86%
    10:00 -5°C° 0 mm 4 m/S 748 mmHg 85%
    11:00 -5°C° 0 mm 4 m/S 748 mmHg 84%
    12:00 -4°C° 0.2 mm 3 m/S 747 mmHg 86%
    13:00 -4°C° 0.2 mm 3 m/S 747 mmHg 87%
    14:00 -4°C° 0.2 mm 3 m/S 746 mmHg 89%
    15:00 -4°C° 0.3 mm 3 m/S 746 mmHg 89%
    16:00 -4°C° 0.3 mm 3 m/S 746 mmHg 90%
    17:00 -4°C° 0.3 mm 3 m/S 746 mmHg 90%
    18:00 -2°C° 0.1 mm 3 m/S 746 mmHg 91%
    19:00 -2°C° 0.1 mm 3 m/S 746 mmHg 91%
    20:00 -2°C° 0.1 mm 3 m/S 746 mmHg 91%
    21:00 -2°C° 0.1 mm 2 m/S 746 mmHg 92%
    22:00 -2°C° 0.1 mm 2 m/S 747 mmHg 93%
    23:00 -2°C° 0.1 mm 2 m/S 747 mmHg 94%

    25 November, Sonntag

    Zeit Temperatur Niederschläge Wind Luftdruck Luftfeuchtigkeit
    00:00 -3°C° 0 mm 2 m/S 747 mmHg 95%
    01:00 -1°C° 0 mm 1 m/S 748 mmHg 95%
    02:00 -1°C° 0 mm 1 m/S 748 mmHg 96%
    03:00 -2°C° 0 mm 1 m/S 748 mmHg 96%
    04:00 -2°C° 0 mm 1 m/S 748 mmHg 95%
    05:00 -3°C° 0 mm 1 m/S 748 mmHg 95%
    06:00 -3°C° 0 mm 1 m/S 748 mmHg 95%
    07:00 -3°C° 0 mm 1 m/S 748 mmHg 94%
    08:00 -5°C° 0 mm 0 m/S 749 mmHg 94%
    09:00 -3°C° 0 mm 1 m/S 749 mmHg 91%
    10:00 -2°C° 0 mm 1 m/S 749 mmHg 88%
    11:00 -1°C° 0 mm 1 m/S 749 mmHg 85%
    12:00 -1°C° 0 mm 1 m/S 749 mmHg 85%
    13:00 -1°C° 0 mm 1 m/S 749 mmHg 86%
    14:00 -1°C° 0 mm 1 m/S 748 mmHg 87%
    15:00 -2°C° 0 mm 1 m/S 748 mmHg 89%
    16:00 -3°C° 0 mm 1 m/S 748 mmHg 91%
    17:00 -3°C° 0 mm 1 m/S 748 mmHg 94%
    18:00 -3°C° 0 mm 1 m/S 748 mmHg 94%
    19:00 -3°C° 0 mm 1 m/S 748 mmHg 95%
    20:00 -3°C° 0 mm 1 m/S 748 mmHg 95%
    21:00 -3°C° 0 mm 1 m/S 748 mmHg 95%
    22:00 -4°C° 0 mm 1 m/S 748 mmHg 95%
    23:00 -4°C° 0 mm 1 m/S 748 mmHg 95%

    26 November, Montag

    Zeit Temperatur Niederschläge Wind Luftdruck Luftfeuchtigkeit
    00:00 -4°C° 0 mm 1 m/S 748 mmHg 94%
    01:00 -4°C° 0 mm 1 m/S 748 mmHg 93%
    02:00 -6°C° 0 mm 2 m/S 748 mmHg 92%
    03:00 -6°C° 0 mm 2 m/S 748 mmHg 92%
    04:00 -7°C° 0 mm 2 m/S 747 mmHg 93%
    05:00 -7°C° 0 mm 2 m/S 747 mmHg 93%
    06:00 -7°C° 0 mm 2 m/S 747 mmHg 93%
    07:00 -7°C° 0 mm 1 m/S 747 mmHg 94%
    08:00 -7°C° 0 mm 1 m/S 748 mmHg 94%
    09:00 -7°C° 0 mm 2 m/S 748 mmHg 92%
    10:00 -6°C° 0 mm 2 m/S 748 mmHg 89%
    11:00 -5°C° 0 mm 2 m/S 748 mmHg 86%
    12:00 -5°C° 0 mm 2 m/S 748 mmHg 86%
    13:00 -5°C° 0 mm 2 m/S 749 mmHg 85%
    14:00 -4°C° 0 mm 2 m/S 749 mmHg 84%
    15:00 -5°C° 0 mm 2 m/S 749 mmHg 86%
    16:00 -5°C° 0 mm 2 m/S 749 mmHg 87%
    17:00 -6°C° 0 mm 2 m/S 750 mmHg 88%
    18:00 -6°C° 0 mm 2 m/S 750 mmHg 90%
    19:00 -6°C° 0 mm 1 m/S 750 mmHg 92%
    20:00 -7°C° 0 mm 1 m/S 750 mmHg 94%
    21:00 -7°C° 0 mm 1 m/S 751 mmHg 94%
    22:00 -7°C° 0 mm 1 m/S 751 mmHg 94%
    23:00 -7°C° 0 mm 1 m/S 751 mmHg 94%
    Mehr zeigen